This is the latest recevied weather packets stored in our database for station/object DF2AP-13. If no packets are shown the sender has not sent any weather packets the latest 10 day(s).
| Time | Temp. | Humidity | Pressure | Rain* | Wind** | Luminosity | Snow |
|---|---|---|---|---|---|---|---|
| 1777551475 | 16.11° C | 29% | 1031.7 hPa | - | - | - | - |
| 1777550875 | 16.67° C | 28% | 1031.7 hPa | - | - | - | - |
| 1777550275 | 16.67° C | 29% | 1031.8 hPa | - | - | - | - |
| 1777549675 | 16.67° C | 28% | 1031.9 hPa | - | - | - | - |
| 1777549075 | 16.67° C | 27% | 1032 hPa | - | - | - | - |
| 1777548475 | 16.11° C | 28% | 1032.1 hPa | - | - | - | - |
| 1777547875 | 16.11° C | 29% | 1032.1 hPa | - | - | - | - |
| 1777547275 | 16.11° C | 29% | 1032.2 hPa | - | - | - | - |
| 1777546675 | 15° C | 29% | 1032.4 hPa | - | - | - | - |
| 1777546075 | 15° C | 27% | 1032.4 hPa | - | - | - | - |
| 1777545475 | 15° C | 30% | 1032.4 hPa | - | - | - | - |
| 1777544875 | 15.56° C | 29% | 1032.5 hPa | - | - | - | - |
| 1777544275 | 15° C | 31% | 1032.5 hPa | - | - | - | - |
| 1777543675 | 15° C | 30% | 1032.6 hPa | - | - | - | - |
| 1777543075 | 14.44° C | 32% | 1032.7 hPa | - | - | - | - |
| 1777542475 | 14.44° C | 32% | 1032.9 hPa | - | - | - | - |
| 1777541876 | 14.44° C | 33% | 1033 hPa | - | - | - | - |
| 1777541275 | 13.89° C | 32% | 1033.2 hPa | - | - | - | - |
| 1777540675 | 13.89° C | 32% | 1033.3 hPa | - | - | - | - |
| 1777540075 | 13.33° C | 33% | 1033.1 hPa | - | - | - | - |
| 1777539475 | 12.78° C | 33% | 1033.4 hPa | - | - | - | - |
| 1777538875 | 12.78° C | 33% | 1033.4 hPa | - | - | - | - |
| 1777538275 | 12.22° C | 34% | 1033.7 hPa | - | - | - | - |
| 1777537675 | 11.67° C | 34% | 1033.6 hPa | - | - | - | - |
| 1777537075 | 11.11° C | 34% | 1033.8 hPa | - | - | - | - |
* Rain since midnight (hover to see other rain measurements)
** Current wind speed in m/s (hover to see current wind gust speed)